Location: Newark
(34.1333°N, 7.9667°W)
Time: 02:31:05
(UTC+00:00)

Altair - All Passes

Search period start: 04 December 2021 00:00
Search period end: 14 December 2021 00:00
Orbit: 1502 x 1682 km, 47.2° (Epoch: 03 December)

Date Brightness Start Highest point End Pass type
(mag) Time Alt. Az. Time Alt. Az. Time Alt. Az.
04 Dec - 00:04:15 10° WNW 00:12:17 35° SW 00:20:24 10° SSE night (unlit)
04 Dec - 13:13:32 10° S 13:20:51 24° SE 13:27:58 10° ENE daylight
04 Dec - 15:15:01 10° SW 15:24:44 85° SE 15:34:06 10° NE daylight
04 Dec - 17:21:16 10° W 17:30:12 44° NNW 17:38:54 10° NE daylight
04 Dec - 19:28:25 10° WNW 19:36:55 37° N 19:45:16 10° ENE visible
04 Dec - 21:33:45 10° NW 21:42:56 69° NNE 21:52:06 10° ESE visible
04 Dec - 23:38:57 10° WNW 23:47:12 39° SW 23:55:32 10° SSE night (unlit)
05 Dec - 12:48:54 10° S 12:55:46 22° SE 13:02:27 10° E daylight
05 Dec - 14:49:49 10° SW 14:59:33 80° SE 15:08:55 10° NE daylight
05 Dec - 16:55:52 10° W 17:04:54 45° NNW 17:13:42 10° NE daylight
05 Dec - 19:03:07 10° WNW 19:11:36 37° N 19:19:56 10° ENE visible
05 Dec - 21:08:34 10° NW 21:17:44 65° NNE 21:26:51 10° ESE visible
05 Dec - 23:13:39 10° WNW 23:22:06 43° SW 23:30:38 10° SSE visible
06 Dec - 12:24:22 10° SSE 12:30:40 19° SE 12:36:51 10° E daylight
06 Dec - 14:24:39 10° SW 14:34:23 74° SE 14:43:46 10° ENE daylight
06 Dec - 16:30:28 10° W 16:39:37 48° NNW 16:48:30 10° NE daylight
06 Dec - 18:37:47 10° WNW 18:46:16 36° N 18:54:35 10° ENE visible
06 Dec - 20:43:22 10° NW 20:52:30 61° NNE 21:01:34 10° ESE visible
06 Dec - 22:48:23 10° WNW 22:57:00 47° SW 23:05:41 10° SSE visible
07 Dec - 11:59:56 10° SSE 12:05:36 17° SE 12:11:09 10° E daylight
07 Dec - 13:59:31 10° SW 14:09:13 69° SE 14:18:34 10° ENE daylight
07 Dec - 16:05:05 10° W 16:14:21 50° NNW 16:23:20 10° NE daylight
07 Dec - 18:12:27 10° WNW 18:20:56 36° N 18:29:15 10° ENE visible
07 Dec - 20:18:11 10° NW 20:27:16 58° NNE 20:36:17 10° ESE visible
07 Dec - 22:23:08 10° WNW 22:31:54 52° SW 22:40:43 10° SSE visible
08 Dec - 11:35:41 10° SSE 11:40:31 15° ESE 11:45:17 10° E daylight
08 Dec - 13:34:25 10° SW 13:44:04 63° SE 13:53:22 10° ENE daylight
08 Dec - 15:39:41 10° W 15:49:04 53° NNW 15:58:09 10° NE daylight
08 Dec - 17:47:06 10° WNW 17:55:36 36° N 18:03:55 10° ENE visible
08 Dec - 19:52:59 10° NW 20:02:03 55° NNE 20:10:59 10° ESE visible
08 Dec - 21:57:54 10° WNW 22:06:48 57° SW 22:15:43 10° SSE visible
09 Dec - 00:07:35 10° WSW 00:10:04 11° WSW 00:12:33 10° SW night (unlit)
09 Dec - 11:11:42 10° SE 11:15:27 13° ESE 11:19:08 10° E daylight
09 Dec - 13:09:20 10° SSW 13:18:55 58° SE 13:28:09 10° ENE daylight
09 Dec - 15:14:19 10° WSW 15:23:48 55° NNW 15:32:58 10° NE daylight
09 Dec - 17:21:43 10° WNW 17:30:16 36° N 17:38:37 10° ENE daylight
09 Dec - 19:27:46 10° NW 19:36:48 52° NNE 19:45:40 10° E visible
09 Dec - 21:32:40 10° WNW 21:41:41 62° SW 21:50:42 10° SE visible
09 Dec - 23:41:08 10° W 23:45:01 13° WSW 23:48:57 10° SSW night (unlit)
10 Dec - 10:48:28 10° SE 10:50:23 11° ESE 10:52:17 10° ESE daylight
10 Dec - 12:44:16 10° SSW 12:53:46 53° SE 13:02:56 10° ENE daylight
10 Dec - 14:48:57 10° WSW 14:58:32 59° NNW 15:07:48 10° NE daylight
10 Dec - 16:56:20 10° WNW 17:04:56 36° N 17:13:19 10° ENE daylight
10 Dec - 19:02:33 10° NW 19:11:32 49° NNE 19:20:21 10° E visible
10 Dec - 21:07:27 10° WNW 21:16:34 68° SW 21:25:38 10° SE visible
10 Dec - 23:15:08 10° W 23:19:59 16° WSW 23:24:51 10° SSW visible
11 Dec - 12:19:15 10° SSW 12:28:38 49° SE 12:37:41 10° ENE daylight
11 Dec - 14:23:37 10° WSW 14:33:17 62° NNW 14:42:38 10° NE daylight
11 Dec - 16:30:56 10° WNW 16:39:36 37° N 16:48:01 10° ENE daylight
11 Dec - 18:37:19 10° NW 18:46:16 47° NNE 18:55:02 10° E visible
11 Dec - 20:42:14 10° WNW 20:51:26 73° SW 21:00:33 10° SE visible
11 Dec - 22:49:22 10° W 22:54:56 18° SW 23:00:32 10° SSW visible
12 Dec - 11:54:16 10° SSW 12:03:30 45° SE 12:12:25 10° ENE daylight
12 Dec - 13:58:17 10° WSW 14:08:03 66° NNW 14:17:28 10° NE daylight
12 Dec - 16:05:31 10° WNW 16:14:16 37° N 16:22:44 10° ENE daylight
12 Dec - 18:12:04 10° NW 18:20:59 45° NNE 18:29:41 10° E visible
12 Dec - 20:17:02 10° NW 20:26:17 79° SW 20:35:27 10° SE visible
12 Dec - 22:23:42 10° W 22:29:53 20° SW 22:36:06 10° SSW visible
13 Dec - 11:29:19 10° SSW 11:38:22 41° SE 11:47:08 10° ENE daylight
13 Dec - 13:32:57 10° WSW 13:42:48 70° NNW 13:52:18 10° NE daylight
13 Dec - 15:40:07 10° WNW 15:48:55 38° N 15:57:29 10° ENE daylight
13 Dec - 17:46:49 10° NW 17:55:42 43° NNE 18:04:21 10° E visible
13 Dec - 19:51:50 10° NW 20:01:09 85° SW 20:10:19 10° SE visible
13 Dec - 21:58:10 10° WNW 22:04:50 23° SW 22:11:32 10° S visible
